2008 GO98彗星

362P/(457175) 2008 GO98 (2016)

English version
Home page
Updated on March 4, 2018

---------------------------------------------------------------------

・ プロフィール

・ 写真集

・ 軌道要素

Epoch 2016 Sept. 9.0 TT = JDT 2457640.5
T 2016 Aug. 23.28819 TT                                 MPCW
q   2.8502397            (2000.0)            P               Q
n   0.12500965     Peri.   53.36727     -0.41352348     +0.90860531
a   3.9613240      Node   192.61037     -0.89733272     -0.41760566
e   0.2804831      Incl.   15.57162     -0.15424757     -0.00647280
P   7.88
From 636 observations 2001 Oct. 15-2017 Nov. 2, mean residual 0".6.

・ 光度変化

        H = 13.2  G = 0.15               [   ,200]  (              〜2017年 3月11日)
        m1 = 9.5 + 5 logΔ + 10.0 log r  [200,   ]  (2017年 3月11日〜              )

        ※ 灰色の曲線は、H = 13.2  G = 0.15 の光度曲線です。

---------------------------------------------------------------------

軌道要素はM.P.E.C. 2017-V13に掲載されたものです。
光度グラフはComet for Windowsで作成したものです。

---------------------------------------------------------------------

Copyright(C) Seiichi Yoshida (comet@aerith.net). All rights reserved.